Погода в Синьсяне

Китай     35°18′53″N   113°52′21″E
темп.,
°C
ветер,
м/с
пор.,
м/с
влажн.,
%
обл.,
%
осадки,
мм/ч
давл.,
гПа
погр.,
м
8 мая, сб
сб823:00+18зюз49260 0.0 1007137
02:00+17зюз47260 0.0 100592
05:00+16зюз49280 0.0 1004124
08:00+24зюз710180 0.0 1004337
11:00+33юз78120 0.0 10021098
14:00+38зюз7886 0.0 9994612
17:00+37зюз6797 0.0 9984444
20:00+27св814153 0.0 1002421
9 мая, вс
вс923:00+23св613210 0.0 1005371
02:00+20св511265 0.0 1005288
05:00+18всв593290 0.0 1006243
08:00+21всв57305 0.0 1007475
11:00+28в43253 0.0 1005927
14:00+33ю44235 0.0 10011356
17:00+35ююз57225 0.0 9991680
20:00+29ююз41141100 0.0 999240
10 мая, пн
пн1023:00+28ююз613425 0.0 999484
02:00+25ююз495363 0.0 998203
05:00+22всв5959100 0.0 1001218
08:00+23св8123499 0.0 1004715
11:00+28св11133113 0.0 10041180
14:00+29св12143163 0.0 10051518
17:00+27св111338100 0.0 10051373
20:00+22св91550100 0.0 1007874
11 мая, вт
вт1123:00+22св81545100 0.0 1009844
02:00+20св71445100 0.0 1010739
05:00+18св495255 0.0 1010403
08:00+22св683999 0.0 1011695
11:00+27всв4522100 0.0 10101370
14:00+31в4418100 0.0 10071862
17:00+31вюв4418100 0.0 10051832
20:00+24ююв3432100 0.0 100654
12 мая, ср
ср1223:00+21ююз1142100 0.0 100717
02:00+20ююз1146100 0.0 100617
05:00+19ю226196 0.0 100521
08:00+24ююз2351100 0.0 1006379
11:00+28ююв3346100 0.0 10061159
14:00+31ю3341100 0.0 10041875
17:00+32ююв543971 0.0 10021972
20:00+26юв365562 0.0 1004115